Ankeny, IA

3:18 AM CST on November 14, 2019 (GMT -0600)
Ankeny Regional

Weather History for KIKV - September, 2019

Change the Weather History Date:

Monday, September 9, 2019

  Actual Average (WUND) Record (WUND)
Temperature  
Mean Temperature 76 °F -  
Max Temperature 86 °F - - (-1)
Min Temperature 66 °F - - (-1)
Cooling Degree Days 11    
Growing Degree Days 26 (Base 50)    
Moisture  
Dew Point 68 °F    
Average Humidity 91    
Maximum Humidity 100    
Minimum Humidity 66    
Precipitation  
Precipitation 0.27 in - - ()
Sea Level Pressure  
Sea Level Pressure 29.97 in    
Wind  
Wind Speed 7 mph ()    
Max Wind Speed 17 mph    
Max Gust Speed 31 mph    
Visibility 6.5 miles    
Events Rain    
Averages and records for this station are not official NWS values.
T = Trace of Precipitation, MM = Missing Value Source: Averaged Metar Reports

Daily Weather History Graph

Daily Weather History Graph

Search for Another Location

Airport or City:

Astronomy

Sep. 09, 2019 Rise Set
Actual Time 6:48 AM CDT 7:34 PM CDT
Civil Twilight 6:20 AM CDT 8:02 PM CDT
Nautical Twilight 5:46 AM CDT 8:35 PM CDT
Astronomical Twilight 5:12 AM CDT 9:10 PM CDT
Moon 5:34 PM CDT (9/9) 2:16 AM CDT (9/9)
Length of Visible Light 13h 42m
Length of Day
12h 46m
Waxing Gibbous, 83% of the Moon is Illuminated
Sep 9
Waxing Gibbous
Sep 13
Full
Sep 21
Last Quarter
Sep 28
New
Oct 5
First Quarter

Hourly Weather History & Observations

Time (CDT) Temp. Heat Index Dew Point Humidity Pressure Visibility Wind Dir Wind Speed Gust Speed Precip Events Conditions
12:15 AM 66.2 °F - 64.4 °F 94% 30.06 in 10.0 mi ESE 5.8 mph - N/A   Overcast
12:35 AM 66.2 °F - 64.4 °F 94% 30.05 in 10.0 mi East 9.2 mph - N/A   Overcast
12:55 AM 66.2 °F - 64.4 °F 94% 30.05 in 10.0 mi ESE 8.1 mph - N/A   Overcast
1:15 AM 66.2 °F - 64.4 °F 94% 30.06 in 10.0 mi ESE 11.5 mph - N/A   Overcast
1:35 AM 66.2 °F - 64.4 °F 94% 30.06 in 10.0 mi ESE 9.2 mph - N/A   Overcast
1:55 AM 66.2 °F - 64.4 °F 94% 30.05 in 7.0 mi ESE 9.2 mph - N/A   Overcast
2:15 AM 66.2 °F - 64.4 °F 94% 30.04 in 4.0 mi ESE 10.4 mph - N/A   Overcast
2:35 AM 66.2 °F - 64.4 °F 94% 30.04 in 2.5 mi ESE 8.1 mph - N/A   Overcast
2:55 AM 66.2 °F - 64.4 °F 94% 30.03 in 1.5 mi ESE 6.9 mph 15.0 mph N/A   Overcast
3:15 AM 66.2 °F - 64.4 °F 94% 30.02 in 1.2 mi ESE 9.2 mph 15.0 mph N/A   Overcast
3:55 AM 66.2 °F - 64.4 °F 94% 30.02 in 1.2 mi ESE 9.2 mph - N/A   Overcast
4:15 AM 66.2 °F - 64.4 °F 94% 30.01 in 1.2 mi ESE 10.4 mph - N/A   Overcast
4:35 AM 66.2 °F - 64.4 °F 94% 30.01 in 5.0 mi ESE 5.8 mph 13.8 mph N/A   Overcast
4:55 AM 66.2 °F - 64.4 °F 94% 30.02 in 2.5 mi Variable 3.5 mph - 0.05 in Rain Rain
5:15 AM 66.2 °F - 64.4 °F 94% 30.00 in 4.0 mi ESE 6.9 mph - N/A Rain Light Rain
5:35 AM 66.2 °F - 64.4 °F 94% 30.01 in 10.0 mi ESE 6.9 mph - N/A   Overcast
6:15 AM 66.2 °F - 64.4 °F 94% 30.02 in 2.5 mi East 6.9 mph - N/A   Overcast
6:35 AM 66.2 °F - 66.2 °F 100% 30.03 in 0.8 mi East 9.2 mph - N/A   Overcast
6:55 AM 66.2 °F - 66.2 °F 100% 30.03 in 0.8 mi East 6.9 mph - N/A   Overcast
7:35 AM 66.2 °F - 66.2 °F 100% 30.01 in 0.8 mi ESE 9.2 mph - N/A   Overcast
7:55 AM 66.2 °F - 66.2 °F 100% 30.01 in 0.8 mi ESE 8.1 mph - N/A   Overcast
8:15 AM 66.2 °F - 66.2 °F 100% 30.01 in 0.8 mi SE 9.2 mph - N/A   Overcast
8:35 AM 66.2 °F - 66.2 °F 100% 30.01 in 0.5 mi SE 8.1 mph - N/A   Overcast
8:55 AM 66.2 °F - 66.2 °F 100% 30.01 in 0.8 mi ESE 10.4 mph - N/A   Overcast
9:15 AM 68.0 °F - 66.2 °F 94% 30.00 in 0.8 mi SE 9.2 mph 19.6 mph N/A   Overcast
9:35 AM 68.0 °F - 68.0 °F 100% 30.00 in 1.2 mi SE 11.5 mph - N/A   Overcast
9:55 AM 68.0 °F - 68.0 °F 100% 29.99 in 1.5 mi SE 9.2 mph - N/A   Overcast
10:15 AM 68.0 °F - 68.0 °F 100% 29.99 in 1.5 mi SE 11.5 mph - N/A   Overcast
10:35 AM 68.0 °F - 68.0 °F 100% 29.99 in 1.5 mi SE 6.9 mph - N/A   Overcast
10:55 AM 68.0 °F - 68.0 °F 100% 30.00 in 1.8 mi SSE 9.2 mph 16.1 mph N/A   Overcast
11:15 AM 69.8 °F - 69.8 °F 100% 29.99 in 2.0 mi SE 6.9 mph 12.7 mph N/A   Overcast
11:35 AM 69.8 °F - 69.8 °F 100% 29.99 in 3.0 mi SE 8.1 mph - N/A   Overcast
11:55 AM 69.8 °F - 69.8 °F 100% 29.98 in 4.0 mi SE 9.2 mph - N/A   Overcast
12:15 PM 71.6 °F - 69.8 °F 94% 29.97 in 5.0 mi SE 10.4 mph - N/A   Overcast
12:35 PM 71.6 °F - 69.8 °F 94% 29.97 in 5.0 mi SE 9.2 mph - N/A   Overcast
12:55 PM 73.4 °F - 69.8 °F 88% 29.97 in 7.0 mi SE 9.2 mph 16.1 mph N/A   Mostly Cloudy
1:15 PM 75.2 °F - 71.6 °F 89% 29.96 in 9.0 mi SE 9.2 mph - N/A   Mostly Cloudy
1:35 PM 77.0 °F - 71.6 °F 83% 29.96 in 9.0 mi SSE 6.9 mph 16.1 mph N/A   Scattered Clouds
1:55 PM 77.0 °F - 73.4 °F 89% 29.95 in 10.0 mi SSE 9.2 mph - N/A   Scattered Clouds
2:15 PM 78.8 °F - 73.4 °F 83% 29.95 in 10.0 mi SSE 8.1 mph 16.1 mph N/A   Partly Cloudy
2:35 PM 78.8 °F - 73.4 °F 83% 29.94 in 10.0 mi SSE 6.9 mph 13.8 mph N/A   Clear
2:55 PM 80.6 °F 86.2 °F 75.2 °F 84% 29.93 in 10.0 mi ESE 6.9 mph - N/A   Clear
3:15 PM 80.6 °F 86.2 °F 75.2 °F 84% 29.92 in 10.0 mi SE 8.1 mph - N/A   Clear
3:35 PM 82.4 °F 89.5 °F 75.2 °F 79% 29.91 in 10.0 mi SE 8.1 mph - N/A   Clear
3:55 PM 84.2 °F 92.3 °F 75.2 °F 74% 29.88 in 10.0 mi SE 11.5 mph - N/A   Clear
4:15 PM 86.0 °F 93.4 °F 73.4 °F 66% 29.88 in 10.0 mi South 12.7 mph 21.9 mph N/A   Clear
4:35 PM 84.2 °F 89.6 °F 71.6 °F 66% 29.87 in 10.0 mi SSE 8.1 mph 16.1 mph N/A   Clear
4:55 PM 84.2 °F 89.6 °F 71.6 °F 66% 29.87 in 10.0 mi South 8.1 mph 17.3 mph N/A   Clear
5:15 PM 73.4 °F - 66.2 °F 78% 29.92 in 10.0 mi West 17.3 mph 31.1 mph N/A   Mostly Cloudy
5:35 PM 71.6 °F - 68.0 °F 88% 29.89 in 10.0 mi SW 6.9 mph 13.8 mph N/A Rain Light Rain
5:55 PM 71.6 °F - 69.8 °F 94% 29.89 in 10.0 mi Calm Calm - 0.10 in   Partly Cloudy
6:15 PM 71.6 °F - 69.8 °F 94% 29.89 in 10.0 mi Calm Calm - N/A   Clear
6:35 PM 71.6 °F - 69.8 °F 94% 29.92 in 10.0 mi West 11.5 mph - N/A   Scattered Clouds
6:55 PM 73.4 °F - 69.8 °F 88% 29.93 in 10.0 mi West 15.0 mph - N/A   Light Drizzle
7:15 PM 71.6 °F - 68.0 °F 88% 29.94 in 7.0 mi WSW 6.9 mph 13.8 mph N/A Rain Light Rain
7:35 PM 71.6 °F - 68.0 °F 88% 29.93 in 10.0 mi WSW 4.6 mph - N/A Rain Light Rain
7:55 PM 69.8 °F - 68.0 °F 94% 29.94 in 10.0 mi WSW 4.6 mph - 0.09 in Rain Light Rain
8:15 PM 71.6 °F - 68.0 °F 88% 29.92 in 5.0 mi WSW 9.2 mph 16.1 mph N/A Rain Light Rain
8:35 PM 69.8 °F - 66.2 °F 88% 29.92 in 10.0 mi South 5.8 mph - N/A Rain Light Rain
8:55 PM 69.8 °F - 68.0 °F 94% 29.92 in 10.0 mi South 4.6 mph - 0.03 in   Mostly Cloudy
9:15 PM 69.8 °F - 68.0 °F 94% 29.92 in 10.0 mi Calm Calm - N/A   Overcast
9:35 PM 69.8 °F - 68.0 °F 94% 29.92 in 10.0 mi Calm Calm - N/A   Overcast
9:55 PM 73.4 °F - 68.0 °F 83% 29.92 in 8.0 mi SSW 6.9 mph - N/A   Overcast
10:15 PM 71.6 °F - 68.0 °F 88% 29.90 in 10.0 mi SE 6.9 mph - N/A   Overcast
10:35 PM 71.6 °F - 68.0 °F 88% 29.91 in 10.0 mi South 4.6 mph - N/A   Mostly Cloudy
10:55 PM 71.6 °F - 68.0 °F 88% 29.92 in 10.0 mi SSE 4.6 mph - N/A   Overcast
11:15 PM 71.6 °F - 68.0 °F 88% 29.92 in 10.0 mi South 4.6 mph - N/A   Mostly Cloudy
11:35 PM 71.6 °F - 68.0 °F 88% 29.92 in 10.0 mi South 4.6 mph - N/A   Partly Cloudy
11:55 PM 71.6 °F - 68.0 °F 88% 29.91 in 10.0 mi South 6.9 mph - N/A   Partly Cloudy